Weather History for Windom, MN

Change the Weather History Date:

Sunday, March 25, 2012

  Actual Average Record
Temperature  
Mean Temperature 42 °F -  
Max Temperature 51 °F 46 °F 77 °F (1967)
Min Temperature 33 °F 26 °F -4 °F (1952)
Degree Days  
Heating Degree Days 23    
Moisture  
Dew Point 37 °F    
Average Humidity 82    
Maximum Humidity 100    
Minimum Humidity 58    
Precipitation  
Precipitation 0.00 in - - ()
Sea Level Pressure  
Sea Level Pressure 30.14 in    
Wind  
Wind Speed 13 mph (North)    
Max Wind Speed 17 mph    
Max Gust Speed 21 mph    
Visibility 10 miles    
Events Thunderstorm    
Averages and records for this station are not official NWS values.
T = Trace of Precipitation, MM = Missing Value Source: NWS Daily Summary

Daily Weather History Graph

Daily Weather History Graph

Search for Another Location

Airport:

Trip Planner

Search our weather history database for the weather conditions in past years. The results will help you decide how hot, cold, wet, or windy it might be!

Date:

Astronomy

Mar. 25, 2012 Rise Set
Actual Time 7:13 AM CDT 7:39 PM CDT
Civil Twilight 6:44 AM CDT 8:08 PM CDT
Nautical Twilight 6:10 AM CDT 8:42 PM CDT
Astronomical Twilight 5:35 AM CDT 9:17 PM CDT
Moon 8:19 AM CDT (3/25) 11:04 PM CDT (3/25)
Length of Visible Light 13h 23m
Length of Day
12h 25m
Waxing Crescent, 9% of the Moon is Illuminated
Mar 25
Waxing Crescent
Mar 30
First Quarter
Apr 6
Full
Apr 13
Last Quarter
Apr 21
New

Hourly Weather History & Observations

Time (CDT) Temp. Windchill Dew Point Humidity Pressure Visibility Wind Dir Wind Speed Gust Speed Precip Events Conditions
12:12 AM 42.8 °F 36.2 °F 41.0 °F 93% 30.10 in 10.0 mi NW 12.7 mph - N/A   Clear
12:33 AM 42.8 °F 36.6 °F 39.2 °F 87% 30.10 in 10.0 mi NW 11.5 mph - N/A   Clear
12:53 AM 41.0 °F 34.3 °F 39.2 °F 93% 30.10 in 10.0 mi NW 11.5 mph - N/A   Scattered Clouds
1:12 AM 39.2 °F 30.2 °F 39.2 °F 100% 30.10 in 10.0 mi NNW 17.3 mph - N/A   Clear
1:33 AM 39.2 °F 30.8 °F 37.4 °F 93% 30.11 in 10.0 mi NW 15.0 mph - N/A   Clear
1:53 AM 39.2 °F 30.8 °F 37.4 °F 93% 30.11 in 10.0 mi NNW 15.0 mph - N/A   Clear
2:12 AM 37.4 °F 28.5 °F 37.4 °F 100% 30.11 in 10.0 mi NNW 15.0 mph - N/A   Clear
2:33 AM 37.4 °F 28.9 °F 37.4 °F 100% 30.11 in 10.0 mi NNW 13.8 mph - N/A   Clear
2:52 AM 37.4 °F 28.9 °F 37.4 °F 100% 30.11 in 10.0 mi NNW 13.8 mph - N/A   Clear
3:12 AM 37.4 °F 28.9 °F 35.6 °F 93% 30.11 in 10.0 mi NNW 13.8 mph - N/A   Clear
3:33 AM 37.4 °F 29.3 °F 35.6 °F 93% 30.12 in 10.0 mi NNW 12.7 mph - N/A   Clear
4:12 AM 35.6 °F 26.6 °F 35.6 °F 100% 30.12 in 10.0 mi NNW 13.8 mph - N/A   Overcast
4:33 AM 35.6 °F 26.6 °F 35.6 °F 100% 30.12 in 10.0 mi NNW 13.8 mph 19.6 mph N/A   Overcast
4:52 AM 35.6 °F 26.6 °F 35.6 °F 100% 30.12 in 10.0 mi NNW 13.8 mph 18.4 mph N/A   Overcast
5:12 AM 35.6 °F 26.6 °F 35.6 °F 100% 30.13 in 10.0 mi NNW 13.8 mph - N/A   Overcast
5:33 AM 35.6 °F 26.6 °F 35.6 °F 100% 30.12 in 10.0 mi North 13.8 mph - N/A   Overcast
5:52 AM 35.6 °F 28.0 °F 35.6 °F 100% 30.13 in 10.0 mi North 10.4 mph - N/A   Overcast
6:13 AM 35.6 °F 27.5 °F 35.6 °F 100% 30.13 in 10.0 mi NNW 11.5 mph - N/A   Overcast
7:13 AM 33.8 °F 25.3 °F 33.8 °F 100% 30.15 in 10.0 mi North 11.5 mph - N/A   Overcast
7:33 AM 33.8 °F 24.3 °F 33.8 °F 100% 30.16 in 10.0 mi North 13.8 mph - N/A   Overcast
7:52 AM 33.8 °F 24.3 °F 33.8 °F 100% 30.17 in 10.0 mi North 13.8 mph 19.6 mph N/A   Overcast
8:13 AM 35.6 °F 26.2 °F 35.6 °F 100% 30.17 in 7.0 mi NNW 15.0 mph - N/A   Overcast
8:33 AM 35.6 °F 27.5 °F 35.6 °F 100% 30.17 in 7.0 mi North 11.5 mph - N/A   Overcast
8:52 AM 35.6 °F 26.6 °F 35.6 °F 100% 30.17 in 1.5 mi NNW 13.8 mph - N/A   Overcast
9:13 AM 35.6 °F 27.5 °F 35.6 °F 100% 30.17 in 4.0 mi North 11.5 mph - N/A   Overcast
9:32 AM 35.6 °F 26.2 °F 35.6 °F 100% 30.17 in 10.0 mi North 15.0 mph 20.7 mph N/A   Overcast
9:52 AM 35.6 °F 27.1 °F 35.6 °F 100% 30.18 in 7.0 mi North 12.7 mph 17.3 mph N/A   Overcast
10:13 AM 35.6 °F 27.1 °F 35.6 °F 100% 30.18 in 10.0 mi North 12.7 mph - N/A   Overcast
10:32 AM 37.4 °F 29.3 °F 35.6 °F 93% 30.18 in 10.0 mi North 12.7 mph - N/A   Overcast
10:52 AM 37.4 °F 29.3 °F 35.6 °F 93% 30.18 in 10.0 mi North 12.7 mph - N/A   Overcast
11:13 AM 37.4 °F 29.8 °F 35.6 °F 93% 30.18 in 10.0 mi North 11.5 mph - N/A   Overcast
11:32 AM 39.2 °F 32.0 °F 35.6 °F 87% 30.18 in 10.0 mi NNE 11.5 mph - N/A   Overcast
11:52 AM 39.2 °F 32.5 °F 35.6 °F 87% 30.18 in 10.0 mi North 10.4 mph - N/A   Overcast
12:13 PM 42.8 °F 36.6 °F 37.4 °F 81% 30.17 in 10.0 mi NNE 11.5 mph - N/A   Overcast
12:32 PM 42.8 °F 37.0 °F 37.4 °F 81% 30.17 in 10.0 mi North 10.4 mph - N/A   Overcast
12:53 PM 44.6 °F 39.2 °F 37.4 °F 76% 30.15 in 10.0 mi North 10.4 mph - N/A   Overcast
1:12 PM 46.4 °F 41.5 °F 37.4 °F 71% 30.15 in 10.0 mi North 10.4 mph - N/A   Overcast
1:33 PM 46.4 °F 41.9 °F 37.4 °F 71% 30.16 in 10.0 mi NNE 9.2 mph - N/A   Overcast
1:52 PM 46.4 °F 41.5 °F 37.4 °F 71% 30.15 in 10.0 mi North 10.4 mph - N/A   Overcast
2:12 PM 48.2 °F - 37.4 °F 66% 30.14 in 10.0 mi NNE 12.7 mph 17.3 mph N/A   Overcast
2:33 PM 50.0 °F - 37.4 °F 62% 30.14 in 10.0 mi North 13.8 mph 17.3 mph N/A   Overcast
2:52 PM 50.0 °F - 37.4 °F 62% 30.14 in 10.0 mi North 12.7 mph - N/A   Overcast
3:13 PM 50.0 °F - 37.4 °F 62% 30.12 in 10.0 mi NNE 10.4 mph 17.3 mph N/A   Overcast
3:32 PM 51.8 °F - 37.4 °F 58% 30.13 in 10.0 mi NE 11.5 mph - N/A   Overcast
3:52 PM 51.8 °F - 37.4 °F 58% 30.11 in 10.0 mi NNE 12.7 mph - N/A   Overcast
4:13 PM 51.8 °F - 37.4 °F 58% 30.10 in 10.0 mi NE 13.8 mph - N/A   Overcast
4:32 PM 51.8 °F - 39.2 °F 62% 30.11 in 10.0 mi NE 12.7 mph - N/A   Overcast
4:52 PM 51.8 °F - 39.2 °F 62% 30.12 in 10.0 mi NE 9.2 mph - N/A   Overcast
5:13 PM 51.8 °F - 37.4 °F 58% 30.12 in 10.0 mi NE 11.5 mph - N/A   Overcast
5:52 PM 51.8 °F - 37.4 °F 58% 30.11 in 10.0 mi NE 10.4 mph - N/A   Overcast
6:13 PM 51.8 °F - 39.2 °F 62% 30.11 in 10.0 mi NE 11.5 mph - N/A   Overcast
6:32 PM 51.8 °F - 39.2 °F 62% 30.11 in 10.0 mi NE 11.5 mph - N/A   Overcast
6:52 PM 51.8 °F - 39.2 °F 62% 30.11 in 10.0 mi ENE 10.4 mph - N/A   Overcast
7:13 PM 51.8 °F - 39.2 °F 62% 30.11 in 10.0 mi ENE 11.5 mph - N/A   Overcast
7:52 PM 50.0 °F - 39.2 °F 66% 30.11 in 10.0 mi NE 10.4 mph - N/A   Overcast
8:13 PM 50.0 °F - 39.2 °F 66% 30.12 in 10.0 mi NE 9.2 mph - N/A   Overcast
8:32 PM 48.2 °F - 39.2 °F 71% 30.12 in 10.0 mi NE 8.1 mph - N/A Thunderstorm Thunderstorm
8:52 PM 48.2 °F - 37.4 °F 66% 30.12 in 10.0 mi NE 9.2 mph - N/A   Overcast
9:13 PM 48.2 °F - 37.4 °F 66% 30.14 in 10.0 mi NNE 9.2 mph - N/A   Overcast
9:32 PM 48.2 °F - 35.6 °F 62% 30.14 in 10.0 mi NNE 10.4 mph - N/A   Overcast
9:53 PM 48.2 °F - 35.6 °F 62% 30.14 in 10.0 mi NE 11.5 mph - N/A   Overcast
10:13 PM 48.2 °F - 35.6 °F 62% 30.15 in 10.0 mi NE 9.2 mph 16.1 mph N/A   Overcast
10:32 PM 48.2 °F - 35.6 °F 62% 30.15 in 10.0 mi NE 12.7 mph 16.1 mph N/A   Overcast
10:53 PM 48.2 °F - 35.6 °F 62% 30.15 in 10.0 mi ENE 11.5 mph - N/A   Overcast
11:12 PM 48.2 °F - 35.6 °F 62% 30.14 in 10.0 mi ENE 11.5 mph - N/A   Mostly Cloudy
11:33 PM 48.2 °F - 35.6 °F 62% 30.14 in 10.0 mi ENE 12.7 mph - N/A   Overcast
11:53 PM 48.2 °F - 35.6 °F 62% 30.14 in 10.0 mi ENE 12.7 mph - N/A   Overcast